{"data":{"norad_id":64264,"intl_designator":"2025-120J","name":"STARLINK-34333","alt_names":[],"object_type":"PAYLOAD","status":"ACTIVE","operator":null,"country":"US","launch_date":"2025-06-04","launch_site_code":"AFWTR","launch_vehicle":null,"mission":null,"orbit_class":"UNKNOWN","rcs_meters":null,"size_class":null,"mass_kg":null,"dimensions":null,"purposes":["comms"],"wikipedia_slug":null,"has_3d_model":false,"image_url":null,"decayed_at":null,"tle_current":{"epoch":"2026-09-20T08:21:10.963584Z","epoch_age_seconds":150692,"freshness":"FRESH","line1":"1 64264U 25120J   26263.34804356  .00013594  00000+0  41265-3 0  9996","line2":"2 64264  53.1609 286.5341 0001616  88.7472 271.3716 15.34406535 73752","mean_motion":15.34406535,"eccentricity":0.0001616,"inclination_deg":53.1609,"raan_deg":286.5341,"arg_perigee_deg":88.7472,"mean_anomaly_deg":271.3716,"bstar":0.00041265,"rev_number":7375,"period_min":93.847358386023,"perigee_km":461.57834023485,"apogee_km":463.78929352286,"semimajor_km":6840.8208168789,"source":"CELESTRAK","updated_at":"2026-09-21T09:00:35.283003Z"}}}